Wind_Speed
9 9 9 8 7 8 9 8 11 12 14 14 12 12 13 13 14 14 13 13 12 13 12 12 10 9 8 8 7 6 6 6 6 5 4 4 3 3 2 2 2 1 1 1 1 1 1 1 2
9 9 8 7 7 11 13 12 14 15 16 15 13 13 14 15 14 15 15 13 13 14 13 12 11 10 9 8 7 7 6 6 6 6 5 5 4 4 3 2 2 2 2 2 2 2 2 2 3
8 8 7 6 6 7 12 16 18 17 17 15 14 14 14 14 13 15 15 16 15 15 14 13 12 10 9 8 8 7 7 7 7 7 6 5 5 4 4 4 3 3 3 3 3 4 4 4 4
8 7 6 5 6 7 13 16 19 18 17 14 14 15 13 13 14 15 16 18 17 16 14 13 12 11 10 9 8 8 8 8 8 7 7 6 6 5 5 5 5 5 5 5 5 5 5 5 5
8 6 7 8 7 11 16 17 18 15 17 15 15 16 13 14 15 15 16 17 15 15 15 14 13 12 11 10 9 9 9 9 9 8 7 7 7 6 6 6 6 6 6 6 6 6 6 7 7
6 6 7 7 8 14 18 18 16 15 16 15 15 16 14 14 15 14 15 16 16 16 17 15 14 13 12 11 10 10 10 10 10 9 8 8 8 7 7 7 7 7 7 7 7 7 8 8 8
6 5 5 5 10 14 18 18 16 16 17 15 16 17 16 15 15 15 15 15 15 15 16 16 15 14 13 12 11 11 11 11 10 10 9 9 9 9 8 8 8 8 8 8 9 8 8 9 9
5 4 3 3 9 13 18 18 17 17 18 17 18 18 16 14 15 16 16 16 16 16 16 17 16 15 14 13 13 13 12 11 11 11 10 10 10 9 9 9 9 9 8 9 9 9 9 9 9
4 4 4 4 9 13 18 17 16 18 19 19 19 18 18 17 18 17 17 18 17 16 17 17 17 16 15 14 14 13 13 12 12 11 11 10 10 10 10 9 9 9 9 9 9 9 9 9 9
3 2 3 10 12 12 15 16 16 17 18 20 20 19 18 18 18 18 19 19 19 18 18 18 18 17 16 15 15 14 14 13 12 12 12 11 11 10 10 9 9 9 8 9 9 8 8 8 9
4 4 6 9 11 12 13 15 16 17 19 21 22 21 22 20 19 19 20 20 20 21 20 19 20 19 18 17 16 15 14 13 13 12 11 10 9 9 9 9 8 7 7 7 8 7 7 7 7
6 7 8 10 12 13 15 15 15 17 20 20 23 22 22 22 21 20 21 21 21 22 22 21 20 20 18 18 16 15 14 13 12 10 10 10 9 9 8 7 7 6 5 5 5 5 6 6 7
7 9 11 11 12 14 17 17 17 17 19 20 22 22 21 21 21 20 19 20 21 23 23 23 22 21 18 17 16 15 13 11 10 9 9 9 8 8 7 7 6 5 5 4 5 5 6 6 6
5 7 9 11 13 16 20 19 17 17 21 22 22 22 22 20 20 20 20 19 21 23 23 22 22 20 18 17 16 14 11 9 9 8 8 7 7 6 6 5 4 4 4 4 5 5 5 5 5
6 7 10 13 15 17 21 21 21 20 23 23 23 22 21 18 17 18 19 19 19 20 21 21 21 19 17 16 14 12 11 9 8 7 7 6 5 5 4 4 3 4 4 4 4 4 4 4 4
7 9 14 15 15 18 22 22 23 22 23 23 22 22 19 16 16 17 18 17 19 20 19 19 19 18 17 15 14 13 11 10 8 7 6 4 3 3 3 3 2 3 3 3 4 4 4 4 4
11 12 13 14 16 18 22 22 22 22 23 24 23 21 18 16 15 15 16 16 17 19 19 19 19 18 16 14 14 13 11 9 7 7 6 4 2 1 0 0 1 2 3 3 3 3 4 5 5
11 11 12 14 17 20 21 21 20 21 23 23 22 21 18 14 11 12 13 14 15 17 17 18 18 17 15 14 13 12 10 8 7 7 5 3 2 1 1 1 2 2 3 3 4 4 4 5 5
11 11 12 15 16 19 18 18 19 19 21 22 21 19 17 13 9 8 10 12 14 16 17 18 19 17 15 14 13 11 9 8 7 6 4 4 3 2 1 1 2 2 3 4 4 5 5 6 6
11 12 14 15 17 17 16 17 18 18 19 21 20 18 16 13 9 6 8 10 13 14 16 17 18 17 15 14 13 11 9 8 7 5 5 4 3 2 1 1 1 2 3 4 4 5 6 7 7
12 13 15 16 14 13 15 17 17 16 18 19 18 17 15 12 8 4 4 8 10 12 14 16 16 15 13 13 12 11 9 9 7 6 5 4 3 3 1 1 1 2 3 4 4 5 6 7 7
14 15 15 14 13 12 13 17 18 16 17 18 17 15 14 12 8 4 1 4 6 9 12 14 14 14 13 13 12 11 10 9 8 7 6 5 4 3 2 1 1 2 3 4 5 6 6 7 8
15 15 14 13 14 14 14 12 15 16 17 18 17 14 13 11 8 4 2 0 3 5 9 12 12 12 12 12 12 11 10 9 8 7 7 6 5 4 3 2 2 2 3 3 4 5 7 8 8
14 13 12 14 16 16 12 9 11 15 17 18 15 13 11 9 8 5 2 1 2 4 7 9 10 11 11 11 11 11 11 10 9 8 8 7 6 5 4 4 3 4 4 4 5 6 8 8 9
14 13 15 17 18 15 13 7 9 14 16 16 14 12 9 8 6 5 2 1 2 4 5 7 8 10 10 10 11 11 10 9 9 9 8 8 7 6 6 6 5 6 6 7 8 9 9 10 11
15 13 16 18 17 17 16 12 8 12 14 14 13 11 9 7 6 4 2 1 1 3 5 6 7 8 9 9 10 10 10 10 10 10 10 9 9 8 8 8 8 8 9 10 10 11 12 12 13
16 15 15 18 16 17 17 13 9 12 12 12 12 11 10 7 6 4 3 2 2 3 4 5 7 8 9 10 10 11 11 11 11 11 11 11 10 10 10 10 10 11 12 12 13 14 14 15 15
18 17 16 17 18 16 16 15 15 12 12 12 13 12 10 8 6 5 4 4 5 5 6 7 8 9 11 11 11 12 13 13 13 13 12 12 12 12 12 12 13 14 14 15 16 17 17 18 18
19 18 17 17 17 17 17 18 17 13 13 13 13 12 10 9 8 7 6 5 6 6 7 8 9 10 11 12 13 13 14 15 15 15 15 15 15 15 15 15 15 16 17 18 19 20 20 21 21
22 20 18 19 17 17 16 19 16 13 11 12 13 13 11 10 9 8 8 7 7 8 8 9 10 11 12 13 14 14 15 16 16 17 17 17 17 18 18 18 18 19 20 21 21 22 22 23 23
Wind_Direction
343 342 345 351 353 351 356 329 310 302 298 297 291 285 281 275 277 273 263 260 251 243 238 235 234 232 232 238 242 248 256 257 256 250 245 245 244 245 249 253 253 258 267 279 284 304 293 289 288
341 339 343 355 2 360 340 313 302 302 300 298 292 285 280 276 274 270 267 257 250 244 237 234 234 234 236 242 246 253 261 260 257 255 253 253 252 255 261 264 262 265 268 270 272 283 280 269 263
340 338 346 359 20 356 311 302 301 305 300 298 295 290 285 281 275 270 262 253 248 241 234 231 232 233 237 242 248 253 260 260 258 258 258 256 253 256 261 264 265 266 267 271 274 276 276 270 261
338 339 347 8 13 314 294 295 295 302 298 297 295 290 286 284 280 272 262 253 243 236 232 229 229 234 238 240 246 252 257 259 261 260 258 256 256 259 261 264 268 269 268 270 272 275 273 268 264
336 338 2 19 349 306 298 295 297 297 297 299 297 293 289 284 279 273 262 253 240 233 231 229 228 233 238 240 247 252 255 258 260 258 257 256 258 263 265 268 270 269 266 266 267 271 270 269 268
333 344 20 356 317 294 296 300 304 300 293 300 300 293 289 281 275 270 260 252 242 234 231 228 228 231 235 240 246 251 254 256 256 256 259 260 261 265 268 269 269 269 268 265 265 267 270 270 271
331 349 27 336 293 292 293 303 307 301 300 301 302 297 294 282 271 268 260 252 243 233 231 228 227 231 235 241 246 250 252 254 256 258 261 262 261 265 268 267 267 270 271 269 267 269 273 272 270
346 4 71 317 296 294 294 305 308 309 306 305 302 299 296 287 275 266 259 255 246 234 233 232 227 229 233 239 245 249 251 254 257 259 262 264 264 266 267 267 268 271 273 273 269 268 273 272 268
8 42 50 288 279 284 293 303 308 311 310 309 302 301 297 291 277 264 259 253 245 238 233 232 230 230 233 238 243 248 251 254 258 260 263 267 268 267 266 268 269 269 271 274 271 269 273 271 266
351 9 299 271 273 283 297 306 310 312 310 305 303 301 298 291 280 267 260 250 243 238 232 230 229 232 237 241 243 247 250 252 257 262 264 269 271 271 272 274 272 271 271 272 273 277 277 272 268
331 302 285 291 302 307 311 315 313 312 308 307 307 303 297 294 283 266 257 251 241 236 233 230 232 235 239 241 240 244 249 252 258 263 263 269 276 277 277 279 277 276 277 278 281 281 282 279 276
322 320 320 320 319 324 325 322 314 310 310 310 308 306 296 291 283 270 258 249 240 237 235 232 235 237 240 240 242 244 250 255 256 254 262 269 275 277 281 287 280 282 287 287 292 292 292 290 283
320 330 328 322 324 329 331 328 321 318 316 313 309 308 301 290 281 271 260 249 238 233 230 230 231 236 239 240 242 244 249 254 258 263 267 271 278 282 286 288 292 297 299 300 298 297 296 297 293
343 328 313 313 329 335 333 330 319 321 323 321 316 311 306 289 274 267 259 246 239 232 226 225 227 234 239 243 244 239 240 247 253 263 268 272 276 279 284 291 297 299 300 301 304 305 304 302 303
2 348 325 327 331 328 328 327 324 323 325 324 321 315 310 296 279 263 251 245 236 230 225 225 227 232 237 240 241 234 235 241 244 252 264 267 269 278 286 288 292 303 311 314 320 326 326 322 321
4 341 328 331 325 320 326 325 326 326 328 326 324 322 315 298 284 265 249 245 238 228 222 225 226 230 234 237 238 236 236 236 239 248 253 253 262 274 279 280 298 316 336 343 347 346 343 341 336
349 331 326 320 311 312 320 320 324 325 327 326 328 329 323 308 288 265 251 241 232 223 221 224 223 225 228 233 234 234 235 236 236 238 243 241 246 258 351 6 4 6 6 3 0 354 350 349 349
313 310 307 306 306 310 317 320 323 324 330 331 331 333 329 324 299 257 246 237 228 221 221 221 222 223 227 231 233 233 228 227 225 230 225 209 201 164 119 80 41 30 21 14 10 3 358 353 349
285 296 299 299 300 306 314 320 322 327 332 334 335 337 336 332 316 270 244 232 225 225 223 224 225 222 225 230 228 218 214 212 211 212 201 189 184 176 151 93 52 37 22 14 8 0 353 348 345
287 295 296 298 299 308 315 317 319 326 333 335 337 339 342 339 328 297 246 228 221 221 223 222 223 219 219 222 216 207 205 203 198 191 182 183 186 187 168 117 43 14 5 3 358 357 354 350 346
284 290 291 295 301 305 313 310 309 322 334 338 340 342 345 346 337 321 246 223 217 219 222 221 219 213 210 211 208 202 199 194 191 190 188 189 190 188 175 156 16 1 359 1 358 357 358 357 353
282 283 288 299 305 296 293 296 309 324 333 338 339 341 346 352 353 355 303 230 215 216 213 210 208 204 206 206 202 200 197 197 199 197 197 198 200 204 212 238 317 346 353 359 360 2 1 358 357
272 282 289 298 295 282 277 289 310 328 333 336 339 340 346 357 5 17 28 116 198 200 195 196 197 199 198 201 204 203 202 203 202 203 208 213 217 224 240 258 287 314 328 339 347 352 352 352 352
275 287 293 298 297 292 305 302 302 322 331 332 337 341 344 355 8 20 44 102 158 164 175 187 193 194 195 200 203 202 204 205 205 212 216 223 228 236 248 261 280 293 301 310 320 327 332 336 337
273 288 296 299 311 322 330 303 295 319 327 330 332 338 343 346 360 18 39 130 155 165 169 177 186 192 195 200 202 205 207 208 213 219 223 229 236 243 250 261 273 284 293 300 306 312 316 321 325
269 278 286 295 306 311 306 292 289 310 320 327 328 329 337 342 345 352 6 28 163 182 190 194 194 197 204 208 207 210 216 219 223 227 231 235 242 248 256 264 273 281 288 294 299 303 308 312 314
263 267 274 285 292 297 296 300 292 295 308 324 325 323 322 327 328 324 305 275 237 223 213 211 211 211 212 215 218 221 225 228 230 234 240 242 246 252 259 266 274 280 285 290 294 299 302 305 307
261 266 268 271 278 288 296 292 288 294 313 322 320 318 315 313 312 309 297 270 254 244 236 232 229 226 225 226 229 230 234 238 239 241 243 248 253 258 263 269 275 280 284 288 291 295 298 300 302
257 265 266 269 268 274 291 298 300 308 313 313 314 314 310 303 300 295 292 282 267 258 251 246 242 239 236 236 237 239 242 244 245 246 250 255 260 263 267 271 276 281 284 287 289 292 294 296 298
251 256 260 266 268 269 277 286 290 291 292 296 304 306 301 295 294 290 284 281 276 269 261 256 251 247 245 244 244 246 248 249 250 251 256 260 265 268 271 275 278 281 283 286 288 290 293 295 296
Height
5902 5902 5901 5901 5902 5899 5896 5898 5898 5896 5895 5894 5893 5892 5891 5890 5890 5891 5889 5889 5891 5891 5893 5894 5895 5896 5897 5898 5899 5900 5900 5901 5901 5901 5901 5901 5900 5900 5900 5900 5900 5899 5899 5899 5898 5898 5898 5897 5897
5902 5901 5901 5901 5901 5899 5898 5898 5896 5894 5893 5892 5891 5890 5889 5887 5888 5887 5886 5887 5889 5889 5891 5893 5894 5895 5896 5897 5898 5899 5900 5900 5900 5900 5900 5900 5900 5900 5900 5899 5899 5899 5899 5898 5898 5898 5897 5897 5897
5901 5901 5900 5900 5899 5900 5900 5898 5895 5893 5891 5890 5889 5888 5887 5885 5884 5885 5885 5885 5887 5888 5889 5891 5892 5894 5895 5896 5897 5898 5899 5899 5899 5900 5899 5899 5899 5899 5899 5899 5899 5898 5898 5898 5898 5897 5897 5896 5896
5900 5900 5900 5899 5899 5901 5900 5898 5894 5892 5889 5887 5886 5885 5884 5884 5883 5882 5882 5883 5884 5886 5887 5889 5890 5892 5894 5895 5896 5897 5898 5898 5899 5899 5898 5898 5899 5898 5898 5898 5898 5898 5897 5897 5897 5896 5896 5896 5895
5899 5899 5899 5898 5900 5900 5898 5896 5893 5891 5887 5885 5884 5882 5882 5882 5881 5880 5880 5880 5882 5884 5886 5887 5889 5891 5892 5894 5895 5896 5897 5897 5898 5898 5898 5898 5898 5897 5897 5897 5897 5896 5896 5896 5895 5895 5895 5895 5894
5899 5898 5898 5899 5901 5900 5897 5893 5891 5888 5884 5883 5882 5880 5879 5879 5878 5878 5878 5878 5880 5882 5883 5885 5887 5889 5891 5892 5893 5895 5895 5896 5896 5897 5897 5896 5896 5896 5896 5896 5896 5895 5895 5894 5894 5894 5893 5893 5893
5898 5897 5897 5901 5902 5899 5894 5891 5889 5886 5882 5879 5879 5878 5876 5876 5876 5876 5876 5876 5878 5880 5881 5883 5885 5887 5889 5890 5892 5893 5894 5895 5895 5895 5895 5895 5895 5895 5895 5895 5894 5894 5893 5893 5892 5892 5892 5892 5891
5896 5896 5896 5900 5900 5897 5892 5889 5886 5884 5881 5879 5877 5876 5874 5871 5873 5873 5874 5874 5875 5877 5878 5881 5883 5885 5887 5889 5890 5891 5892 5893 5893 5894 5894 5894 5894 5893 5893 5893 5892 5892 5892 5891 5891 5891 5890 5890 5890
5895 5896 5896 5898 5897 5895 5890 5887 5884 5882 5879 5877 5874 5873 5872 5871 5870 5870 5870 5871 5871 5873 5876 5878 5880 5882 5885 5886 5888 5889 5890 5891 5892 5892 5892 5892 5892 5891 5891 5891 5891 5890 5890 5890 5889 5889 5889 5889 5889
5894 5894 5895 5894 5893 5891 5888 5885 5882 5880 5877 5874 5871 5869 5869 5868 5867 5867 5867 5868 5868 5869 5872 5875 5878 5880 5882 5884 5886 5887 5888 5889 5890 5890 5890 5890 5890 5889 5889 5889 5889 5888 5888 5888 5888 5888 5887 5887 5887
5893 5893 5892 5891 5889 5887 5885 5883 5880 5878 5875 5871 5868 5865 5864 5863 5862 5862 5863 5864 5865 5867 5869 5872 5875 5877 5880 5881 5883 5885 5886 5887 5887 5888 5888 5888 5888 5888 5888 5888 5887 5887 5887 5886 5886 5886 5886 5886 5886
5892 5891 5889 5888 5887 5885 5883 5881 5878 5875 5872 5869 5865 5862 5861 5859 5858 5858 5858 5860 5861 5863 5865 5868 5871 5874 5877 5879 5880 5882 5884 5884 5884 5885 5886 5886 5886 5886 5887 5886 5886 5886 5885 5885 5885 5885 5885 5884 5884
5890 5889 5888 5887 5885 5883 5881 5878 5876 5873 5869 5866 5863 5860 5857 5855 5854 5854 5855 5855 5857 5859 5862 5864 5868 5870 5874 5876 5878 5880 5881 5882 5882 5883 5884 5885 5885 5885 5885 5885 5884 5885 5885 5884 5884 5884 5884 5883 5883
5889 5888 5887 5884 5883 5881 5879 5876 5873 5869 5866 5863 5860 5856 5853 5850 5849 5849 5850 5851 5853 5854 5857 5861 5864 5867 5870 5873 5875 5877 5879 5880 5882 5882 5883 5883 5883 5883 5883 5884 5884 5884 5883 5883 5883 5882 5882 5882 5882
5887 5886 5884 5882 5881 5879 5878 5875 5870 5867 5863 5860 5856 5853 5849 5846 5844 5844 5844 5844 5847 5850 5853 5857 5860 5864 5868 5870 5873 5875 5877 5879 5880 5881 5881 5882 5882 5882 5882 5883 5883 5882 5882 5882 5882 5881 5881 5881 5881
5885 5884 5882 5881 5879 5877 5877 5873 5869 5865 5861 5857 5853 5849 5846 5843 5841 5840 5839 5841 5845 5847 5850 5855 5858 5862 5865 5868 5871 5873 5875 5877 5879 5880 5880 5880 5881 5881 5881 5882 5882 5881 5881 5881 5881 5881 5880 5880 5880
5884 5884 5883 5881 5879 5877 5876 5872 5867 5863 5860 5855 5851 5848 5843 5840 5838 5838 5838 5839 5841 5844 5848 5852 5857 5860 5862 5865 5869 5871 5873 5875 5877 5878 5879 5879 5880 5880 5880 5881 5881 5881 5881 5881 5880 5880 5880 5880 5879
5885 5885 5884 5881 5878 5876 5874 5870 5866 5862 5858 5854 5849 5846 5842 5838 5835 5835 5836 5838 5840 5842 5846 5850 5854 5857 5860 5864 5867 5869 5872 5874 5875 5877 5878 5879 5879 5880 5880 5880 5880 5880 5880 5880 5880 5880 5879 5879 5879
5883 5883 5882 5880 5877 5875 5871 5868 5864 5860 5856 5853 5849 5845 5841 5837 5835 5834 5835 5836 5838 5841 5844 5848 5852 5855 5859 5862 5865 5867 5870 5872 5874 5876 5877 5878 5879 5879 5880 5880 5880 5880 5880 5880 5880 5879 5879 5878 5878
5881 5880 5879 5877 5874 5872 5869 5866 5862 5858 5856 5852 5849 5845 5841 5837 5835 5834 5834 5835 5838 5840 5843 5846 5850 5853 5857 5861 5864 5866 5869 5871 5873 5875 5876 5877 5878 5879 5879 5880 5880 5880 5880 5879 5879 5879 5878 5878 5877
5878 5878 5876 5874 5872 5870 5867 5863 5859 5856 5855 5852 5849 5845 5842 5838 5836 5834 5834 5835 5837 5839 5842 5845 5848 5852 5856 5859 5863 5865 5868 5870 5872 5874 5875 5877 5877 5878 5879 5879 5879 5880 5879 5879 5879 5878 5878 5877 5876
5875 5875 5872 5870 5868 5867 5865 5861 5856 5852 5853 5851 5848 5845 5842 5839 5837 5835 5835 5835 5837 5839 5841 5844 5848 5851 5855 5858 5862 5865 5867 5870 5872 5873 5875 5876 5877 5878 5878 5879 5879 5879 5879 5879 5878 5878 5877 5877 5876
5872 5871 5869 5867 5864 5861 5858 5856 5855 5852 5851 5850 5848 5846 5843 5841 5838 5837 5836 5836 5838 5839 5841 5844 5847 5851 5854 5857 5861 5864 5867 5869 5871 5873 5874 5875 5876 5877 5878 5878 5878 5878 5878 5878 5878 5877 5877 5876 5875
5869 5868 5866 5864 5860 5856 5853 5853 5853 5852 5851 5849 5848 5846 5844 5842 5840 5839 5838 5839 5840 5841 5843 5845 5848 5851 5854 5857 5860 5863 5865 5868 5870 5872 5873 5874 5875 5876 5877 5877 5877 5877 5877 5877 5877 5876 5876 5875 5874
5866 5865 5864 5861 5857 5854 5852 5851 5852 5851 5850 5849 5847 5846 5844 5843 5842 5841 5841 5841 5841 5843 5844 5846 5848 5851 5854 5856 5859 5862 5864 5866 5868 5870 5871 5872 5874 5875 5875 5876 5876 5876 5876 5876 5875 5875 5874 5874 5873
5863 5863 5862 5860 5857 5855 5851 5849 5849 5850 5849 5848 5847 5846 5845 5843 5842 5842 5842 5842 5842 5843 5845 5846 5849 5851 5853 5855 5858 5860 5862 5864 5866 5868 5869 5870 5872 5873 5873 5874 5874 5874 5874 5874 5874 5873 5872 5872 5871
5860 5860 5860 5857 5855 5854 5850 5848 5845 5845 5846 5846 5846 5845 5844 5843 5843 5843 5842 5843 5843 5844 5846 5847 5848 5850 5852 5854 5856 5858 5860 5862 5864 5865 5867 5868 5869 5870 5871 5871 5871 5871 5871 5871 5871 5870 5870 5869 5868
5856 5857 5856 5855 5852 5851 5848 5846 5844 5841 5843 5844 5844 5844 5843 5843 5843 5842 5842 5843 5843 5844 5846 5847 5848 5849 5851 5852 5854 5856 5857 5859 5861 5863 5864 5865 5866 5867 5867 5868 5868 5868 5868 5868 5868 5867 5866 5865 5864
5852 5852 5851 5851 5850 5849 5847 5846 5842 5841 5842 5842 5843 5843 5842 5842 5842 5842 5842 5842 5842 5843 5844 5845 5846 5848 5849 5850 5851 5853 5855 5856 5858 5860 5861 5862 5863 5863 5864 5864 5864 5864 5864 5864 5863 5863 5862 5861 5860
5846 5846 5846 5846 5846 5846 5846 5846 5841 5839 5840 5840 5841 5841 5841 5841 5841 5841 5841 5841 5841 5842 5842 5843 5844 5845 5847 5848 5849 5851 5852 5853 5854 5856 5857 5858 5858 5859 5859 5859 5859 5859 5859 5859 5858 5858 5857 5856 5855